Regional Weather Roundup
Issued by NWS State College, PA

Home | Current Version | Previous Version | Graphics & Text | Print | Product List | Glossary Off
Versions: 1 2 3 4 5 6 7 8 9 10 11 12 13 14 15 16 17 18 19 20 21 22 23 24 25 26 27 28 29 30 31 32 33 34 35 36 37 38 39 40 41 42 43 44 45 46 47 48 49 50

000
ASUS41 KCTP 241210
RWRCTP

REGIONAL WEATHER ROUNDUP
NATIONAL WEATHER SERVICE STATE COLLEGE PA
800 AM EDT SUN MAY 24 2015

Note: "fair" indicates few or no clouds below 12,000 feet with no
significant weather and/or obstructions to visibility.

* = STATION THAT DOES NOT REPORT PRECIPITATION /E.G. RAIN...SNOW...ETC/
    THUNDER OR FOG.

PAZ002>004-007>009-013>016-020>023-029>032-241300-
WESTERN PENNSYLVANIA

CITY           SKY/WX    TMP DP  RH WIND       PRES   REMARKS
ERIE           SUNNY     63  39  41 S8        30.32R
MEADVILLE      SUNNY     57  39  51 S7        30.35R
FRANKLIN*      SUNNY     55  39  54 S6        30.38R
NEW CASTLE     FAIR      56  45  66 CALM      30.37S
BEAVER COUNTY  NOT AVBL
BUTLER*        SUNNY     54  45  71 CALM      30.39R
PITTSBURGH INT SUNNY     56  44  64 CALM      30.36R
PITTSBURGH     SUNNY     55  43  63 S3        30.36R
INDIANA*       SUNNY     55  45  67 CALM      30.41S
LATROBE        SUNNY     50  46  87 CALM      30.39S
WASHINGTON CO* SUNNY     54  48  82 CALM      30.38S
$$

PAZ004>006-010>012-017>019-024>028-033>037-041-042-045-046-049>053-241300-
CENTRAL PENNSYLVANIA

CITY           SKY/WX    TMP DP  RH WIND       PRES   REMARKS
BRADFORD       SUNNY     56  35  45 VRB5      30.38R
DUBOIS         SUNNY     55  40  56 CALM      30.38R
CLEARFIELD     SUNNY     44  39  82 CALM      30.39R
JOHNSTOWN      SUNNY     55  37  50 SW7       30.39R
ALTOONA        SUNNY     56  42  59 CALM      30.39R
STATE COLLEGE  SUNNY     50  39  66 CALM      30.38R
WILLIAMSPORT   SUNNY     48  41  76 CALM      30.39R
SELINSGROVE    SUNNY     50  46  86 CALM      30.39R
FT INDIANTOWN  SUNNY     53  44  72 CALM      30.39R
CAPITAL CITY   SUNNY     55  45  68 CALM      30.39R
HARRISBURG     SUNNY     56  46  69 CALM      30.38R
YORK           SUNNY     55  47  74 CALM      30.39R
$$

PAZ038>040-043-044-047-048-054-055-060>062-067>071-241300-
EASTERN PENNSYLVANIA

CITY           SKY/WX    TMP DP  RH WIND       PRES   REMARKS
SCRANTON       SUNNY     51  38  60 CALM      30.37R
MOUNT POCONO   SUNNY     56  36  47 W9        30.37R
ALLENTOWN      SUNNY     54  41  61 CALM      30.38R
QUAKERTOWN*    SUNNY     57  45  62 SW3       30.39R
READING        SUNNY     56  44  64 CALM      30.38R
LANCASTER      SUNNY     54  46  74 CALM      30.38R
COATESVILLE    SUNNY     57  46  67 W5        30.40R
POTTSTOWN      SUNNY     56  45  66 CALM      30.40R
BLUE BELL      SUNNY     59  45  58 SW3       30.38S
DOYLESTOWN     SUNNY     54  43  66 VRB3      30.38R
WILLOW GROVE   NOT AVBL
NORTH PHILA    SUNNY     62  47  57 SW7       30.40S
PHILADELPHIA   MOSUNNY   59  51  75 SW9       30.40S
$$


USA.gov is the U.S. government's official web portal to all federal, state and local government web resources and services.